Wetterdaten: Dienstag, 16.12.2014
Datum Zeit Temp. A. Mod.Schuppen Waschkche Feuchte A. Luftdruck Regen Wind Richtung Richtung
16.12.2014 00:00 4,5 C 4,2 C 6,6 C 88 % 1013,1 hPa 0,0 l/m 11,3 km/h (2 Bft) S-SO 165
16.12.2014 00:05 4,5 C 4,2 C 6,6 C 87 % 1013,1 hPa 0,0 l/m 10,2 km/h (2 Bft) S-SO22.5 160
16.12.2014 00:10 4,6 C 4,1 C 6,6 C 87 % 1013,1 hPa 0,0 l/m 9,2 km/h (2 Bft) S-SO22.5 160
16.12.2014 00:15 4,6 C 4,1 C 6,6 C 87 % 1013,1 hPa 0,0 l/m 8,3 km/h (2 Bft) SO22.5 145
16.12.2014 00:20 4,6 C 4,1 C 6,6 C 87 % 1013,1 hPa 0,0 l/m 8,5 km/h (2 Bft) S-SO 160
16.12.2014 00:25 4,6 C 4,1 C 6,6 C 87 % 1013,1 hPa 0,0 l/m 11,4 km/h (2 Bft) S-SO22.5 160
16.12.2014 00:30 4,6 C 4,2 C 6,6 C 87 % 1013,1 hPa 0,0 l/m 12,6 km/h (3 Bft) S22.5 180
16.12.2014 00:35 4,6 C 4,2 C 6,6 C 87 % 1013,1 hPa 0,0 l/m 15,1 km/h (3 Bft) S22.5 180
16.12.2014 00:40 4,7 C 4,2 C 6,6 C 87 % 1013,1 hPa 0,0 l/m 13,9 km/h (3 Bft) S22.5 185
16.12.2014 00:45 4,7 C 4,2 C 6,6 C 87 % 1013,1 hPa 0,0 l/m 15,1 km/h (3 Bft) S22.5 180
16.12.2014 00:50 4,7 C 4,2 C 6,6 C 87 % 1013,1 hPa 0,0 l/m 14,0 km/h (3 Bft) S22.5 175
16.12.2014 00:55 4,7 C 4,3 C 6,6 C 86 % 1013,1 hPa 0,0 l/m 15,8 km/h (3 Bft) S22.5 185
16.12.2014 01:00 4,7 C 4,3 C 6,6 C 86 % 1013,1 hPa 0,0 l/m 15,8 km/h (3 Bft) S45 185
16.12.2014 01:05 4,7 C 4,4 C 6,6 C 86 % 1012,1 hPa 0,0 l/m 12,1 km/h (2 Bft) S45 180
16.12.2014 01:10 4,7 C 4,4 C 6,6 C 86 % 1012,1 hPa 0,0 l/m 17,0 km/h (3 Bft) S-SO22.5 165
16.12.2014 01:15 4,7 C 4,4 C 6,6 C 86 % 1012,1 hPa 0,0 l/m 14,5 km/h (3 Bft) S22.5 185
16.12.2014 01:20 4,8 C 4,4 C 6,6 C 86 % 1012,1 hPa 0,0 l/m 15,6 km/h (3 Bft) S22.5 175
16.12.2014 01:25 4,8 C 4,4 C 6,6 C 86 % 1012,1 hPa 0,0 l/m 16,0 km/h (3 Bft) S22.5 175
16.12.2014 01:30 4,8 C 4,4 C 6,6 C 86 % 1012,1 hPa 0,0 l/m 11,8 km/h (2 Bft) S22.5 185
16.12.2014 01:34 4,8 C 4,5 C 6,6 C 86 % 1012,1 hPa 0,0 l/m 14,0 km/h (3 Bft) S22.5 180
16.12.2014 01:40 4,8 C 4,4 C 6,6 C 86 % 1012,1 hPa 0,0 l/m 14,0 km/h (3 Bft) S22.5 170
16.12.2014 01:45 4,8 C 4,4 C 6,6 C 86 % 1012,1 hPa 0,0 l/m 14,9 km/h (3 Bft) S45 175
16.12.2014 01:50 4,8 C 4,4 C 6,6 C 86 % 1012,1 hPa 0,0 l/m 13,1 km/h (3 Bft) S22.5 175
16.12.2014 01:55 4,8 C 4,4 C 6,6 C 86 % 1012,1 hPa 0,0 l/m 16,0 km/h (3 Bft) S22.5 175
16.12.2014 02:00 4,7 C 4,4 C 6,6 C 86 % 1012,1 hPa 0,0 l/m 12,9 km/h (3 Bft) S22.5 180
16.12.2014 02:05 4,7 C 4,3 C 6,6 C 86 % 1012,1 hPa 0,0 l/m 10,9 km/h (2 Bft) S22.5 175
16.12.2014 02:10 4,7 C 4,3 C 6,6 C 86 % 1012,1 hPa 0,0 l/m 11,9 km/h (2 Bft) S22.5 175
16.12.2014 02:15 4,7 C 4,3 C 6,6 C 86 % 1012,1 hPa 0,0 l/m 8,0 km/h (2 Bft) S-SO 165
16.12.2014 02:20 4,7 C 4,3 C 6,6 C 86 % 1012,1 hPa 0,0 l/m 11,2 km/h (2 Bft) S22.5 170
16.12.2014 02:25 4,7 C 4,3 C 6,6 C 86 % 1012,1 hPa 0,0 l/m 13,4 km/h (3 Bft) S22.5 180
16.12.2014 02:30 4,7 C 4,3 C 6,6 C 86 % 1012,1 hPa 0,0 l/m 12,0 km/h (2 Bft) S22.5 170
16.12.2014 02:35 4,8 C 4,3 C 6,6 C 86 % 1012,1 hPa 0,0 l/m 10,3 km/h (2 Bft) S 180
16.12.2014 02:40 4,8 C 4,4 C 6,6 C 86 % 1012,1 hPa 0,0 l/m 11,2 km/h (2 Bft) S22.5 170
16.12.2014 02:45 4,7 C 4,4 C 6,6 C 86 % 1012,1 hPa 0,0 l/m 12,3 km/h (2 Bft) S22.5 180
16.12.2014 02:50 4,8 C 4,3 C 6,6 C 86 % 1012,1 hPa 0,0 l/m 11,6 km/h (2 Bft) S-SO22.5 165
16.12.2014 02:55 4,7 C 4,3 C 6,6 C 86 % 1012,1 hPa 0,0 l/m 11,9 km/h (2 Bft) S 175
16.12.2014 03:00 4,7 C 4,3 C 6,6 C 86 % 1012,1 hPa 0,0 l/m 10,5 km/h (2 Bft) S22.5 180
16.12.2014 03:05 4,8 C 4,3 C 6,6 C 86 % 1012,1 hPa 0,0 l/m 18,5 km/h (3 Bft) S-SW22.5 200
16.12.2014 03:10 4,8 C 4,3 C 6,6 C 86 % 1012,1 hPa 0,0 l/m 13,3 km/h (3 Bft) S-SW22.5 195
16.12.2014 03:14 4,8 C 4,4 C 6,6 C 86 % 1012,1 hPa 0,0 l/m 11,9 km/h (2 Bft) S-SW22.5 195
16.12.2014 03:20 4,8 C 4,4 C 6,6 C 86 % 1012,1 hPa 0,0 l/m 10,1 km/h (2 Bft) S-SW22.5 210
16.12.2014 03:25 4,8 C 4,4 C 6,6 C 86 % 1012,1 hPa 0,0 l/m 11,3 km/h (2 Bft) S-SW45 205
16.12.2014 03:30 4,8 C 4,5 C 6,6 C 86 % 1012,1 hPa 0,0 l/m 10,9 km/h (2 Bft) SW22.5 215
16.12.2014 03:35 4,8 C 4,4 C 6,6 C 86 % 1012,1 hPa 0,0 l/m 12,0 km/h (2 Bft) S22.5 190
16.12.2014 03:40 4,8 C 4,5 C 6,6 C 86 % 1012,1 hPa 0,0 l/m 12,6 km/h (3 Bft) S22.5 190
16.12.2014 03:45 4,9 C 4,6 C 6,6 C 87 % 1012,1 hPa 0,0 l/m 12,6 km/h (3 Bft) S-SW22.5 195
16.12.2014 03:50 4,9 C 4,6 C 6,6 C 87 % 1012,1 hPa 0,0 l/m 13,6 km/h (3 Bft) S-SW22.5 200
16.12.2014 03:55 4,9 C 4,6 C 6,6 C 87 % 1012,1 hPa 0,0 l/m 12,6 km/h (3 Bft) S-SW22.5 200
16.12.2014 04:00 4,9 C 4,6 C 6,6 C 87 % 1012,1 hPa 0,0 l/m 13,9 km/h (3 Bft) S-SW22.5 200
16.12.2014 04:05 4,9 C 4,6 C 6,6 C 87 % 1012,1 hPa 0,0 l/m 9,1 km/h (2 Bft) S-SW22.5 200
16.12.2014 04:10 4,9 C 4,6 C 6,6 C 87 % 1012,1 hPa 0,0 l/m 9,4 km/h (2 Bft) S-SW22.5 205
16.12.2014 04:15 4,9 C 4,6 C 6,7 C 87 % 1012,1 hPa 0,0 l/m 12,6 km/h (3 Bft) S-SW22.5 210
16.12.2014 04:20 4,9 C 4,7 C 6,7 C 87 % 1012,1 hPa 0,0 l/m 15,0 km/h (3 Bft) S-SW22.5 205
16.12.2014 04:25 4,9 C 4,7 C 6,6 C 88 % 1012,1 hPa 0,0 l/m 12,5 km/h (2 Bft) SW22.5 215
16.12.2014 04:30 4,9 C 4,7 C 6,6 C 88 % 1012,1 hPa 0,0 l/m 14,1 km/h (3 Bft) SW22.5 225
16.12.2014 04:35 4,9 C 4,7 C 6,6 C 88 % 1012,1 hPa 0,0 l/m 11,9 km/h (2 Bft) SW22.5 220
16.12.2014 04:40 4,9 C 4,7 C 6,6 C 89 % 1012,1 hPa 0,0 l/m 9,5 km/h (2 Bft) SW22.5 230
16.12.2014 04:45 4,8 C 4,7 C 6,6 C 89 % 1012,1 hPa 0,0 l/m 9,8 km/h (2 Bft) SW22.5 215
16.12.2014 04:50 4,9 C 4,7 C 6,6 C 89 % 1012,1 hPa 0,0 l/m 10,0 km/h (2 Bft) SW22.5 220
16.12.2014 04:55 4,9 C 4,8 C 6,6 C 89 % 1012,1 hPa 0,0 l/m 8,1 km/h (2 Bft) SW 225
16.12.2014 05:00 4,9 C 4,8 C 6,6 C 89 % 1012,1 hPa 0,0 l/m 8,5 km/h (2 Bft) W-SW 240
16.12.2014 05:05 4,9 C 4,8 C 6,7 C 89 % 1012,1 hPa 0,0 l/m 11,0 km/h (2 Bft) SW22.5 220
16.12.2014 05:10 4,9 C 4,8 C 6,7 C 89 % 1012,1 hPa 0,0 l/m 13,7 km/h (3 Bft) SW45 230
16.12.2014 05:15 4,9 C 4,8 C 6,7 C 89 % 1012,1 hPa 0,0 l/m 12,0 km/h (2 Bft) SW22.5 225
16.12.2014 05:20 4,9 C 4,8 C 6,7 C 89 % 1012,1 hPa 0,0 l/m 13,0 km/h (3 Bft) SW22.5 230
16.12.2014 05:25 4,9 C 4,9 C 6,7 C 89 % 1012,1 hPa 0,0 l/m 16,0 km/h (3 Bft) SW22.5 230
16.12.2014 05:30 4,9 C 4,9 C 6,7 C 89 % 1012,1 hPa 0,0 l/m 15,0 km/h (3 Bft) SW22.5 235
16.12.2014 05:35 4,9 C 4,9 C 6,7 C 89 % 1012,1 hPa 0,0 l/m 11,0 km/h (2 Bft) W-SW45 240
16.12.2014 05:40 4,9 C 4,9 C 6,7 C 89 % 1012,1 hPa 0,0 l/m 13,0 km/h (3 Bft) SW67.5 225
16.12.2014 05:45 4,9 C 4,9 C 6,7 C 89 % 1011,1 hPa 0,0 l/m 17,1 km/h (3 Bft) SW22.5 220
16.12.2014 05:50 4,9 C 4,9 C 6,7 C 89 % 1011,1 hPa 0,0 l/m 19,8 km/h (3 Bft) SW45 230
16.12.2014 05:55 5,1 C 4,9 C 6,7 C 89 % 1011,1 hPa 0,0 l/m 15,6 km/h (3 Bft) SW45 215
16.12.2014 06:00 5,1 C 4,9 C 6,7 C 89 % 1011,1 hPa 0,0 l/m 15,6 km/h (3 Bft) SW45 215
16.12.2014 06:05 4,9 C 4,9 C 6,7 C 89 % 1011,1 hPa 0,0 l/m 13,6 km/h (3 Bft) SW22.5 215
16.12.2014 06:10 5,1 C 4,9 C 6,7 C 89 % 1011,1 hPa 0,0 l/m 10,8 km/h (2 Bft) SW22.5 220
16.12.2014 06:15 5,1 C 4,9 C 6,7 C 89 % 1011,1 hPa 0,0 l/m 17,0 km/h (3 Bft) SW22.5 215
16.12.2014 06:20 5,1 C 4,9 C 6,7 C 89 % 1011,1 hPa 0,0 l/m 13,6 km/h (3 Bft) SW22.5 220
16.12.2014 06:25 5,1 C 4,9 C 6,7 C 89 % 1011,1 hPa 0,0 l/m 20,3 km/h (4 Bft) SW45 215
16.12.2014 06:30 5,1 C 5,0 C 6,7 C 89 % 1011,1 hPa 0,0 l/m 13,4 km/h (3 Bft) SW22.5 220
16.12.2014 06:35 5,1 C 5,0 C 6,7 C 89 % 1011,1 hPa 0,0 l/m 15,3 km/h (3 Bft) SW22.5 235
16.12.2014 06:40 5,1 C 5,0 C 6,7 C 89 % 1011,1 hPa 0,0 l/m 16,1 km/h (3 Bft) SW67.5 220
16.12.2014 06:45 5,1 C 5,0 C 6,7 C 89 % 1011,1 hPa 0,0 l/m 19,6 km/h (3 Bft) SW45 215
16.12.2014 06:50 5,2 C 5,0 C 6,7 C 89 % 1011,1 hPa 0,0 l/m 16,7 km/h (3 Bft) SW45 215
16.12.2014 06:55 5,2 C 5,0 C 6,7 C 89 % 1011,1 hPa 0,0 l/m 15,1 km/h (3 Bft) SW67.5 220
16.12.2014 07:00 5,1 C 5,0 C 6,7 C 89 % 1011,1 hPa 0,0 l/m 13,6 km/h (3 Bft) SW45 220
16.12.2014 07:05 5,2 C 5,0 C 6,7 C 89 % 1011,1 hPa 0,0 l/m 23,1 km/h (4 Bft) SW45 225
16.12.2014 07:10 5,2 C 5,0 C 6,7 C 89 % 1011,1 hPa 0,0 l/m 15,5 km/h (3 Bft) SW22.5 230
16.12.2014 07:15 5,2 C 5,0 C 6,7 C 89 % 1011,1 hPa 0,0 l/m 17,6 km/h (3 Bft) SW45 220
16.12.2014 07:20 5,2 C 5,0 C 6,7 C 89 % 1011,1 hPa 0,0 l/m 15,7 km/h (3 Bft) SW45 225
16.12.2014 07:25 5,2 C 5,0 C 6,7 C 90 % 1011,1 hPa 0,0 l/m 15,1 km/h (3 Bft) SW45 220
16.12.2014 07:30 5,2 C 5,1 C 6,7 C 90 % 1011,1 hPa 0,0 l/m 15,1 km/h (3 Bft) SW45 220
16.12.2014 07:35 5,2 C 5,1 C 6,7 C 90 % 1011,1 hPa 0,0 l/m 18,8 km/h (3 Bft) SW45 220
16.12.2014 07:40 5,2 C 5,1 C 6,7 C 90 % 1011,1 hPa 0,0 l/m 18,3 km/h (3 Bft) SW22.5 225
16.12.2014 07:45 5,2 C 5,1 C 6,7 C 90 % 1011,1 hPa 0,0 l/m 15,9 km/h (3 Bft) SW22.5 230
16.12.2014 07:49 5,2 C 5,1 C 6,7 C 90 % 1011,1 hPa 0,0 l/m 15,9 km/h (3 Bft) SW22.5 230
16.12.2014 07:55 5,2 C 5,1 C 6,7 C 90 % 1011,1 hPa 0,0 l/m 18,0 km/h (3 Bft) SW22.5 230
16.12.2014 08:00 5,2 C 5,1 C 6,7 C 90 % 1011,1 hPa 0,0 l/m 19,2 km/h (3 Bft) SW22.5 220
16.12.2014 08:05 5,2 C 5,1 C 6,7 C 90 % 1011,1 hPa 0,0 l/m 15,9 km/h (3 Bft) SW22.5 225
16.12.2014 08:10 5,2 C 5,1 C 6,7 C 90 % 1011,1 hPa 0,0 l/m 19,9 km/h (4 Bft) SW45 220
16.12.2014 08:15 5,2 C 5,2 C 6,7 C 90 % 1011,1 hPa 0,0 l/m 19,0 km/h (3 Bft) SW22.5 225
16.12.2014 08:20 5,2 C 5,2 C 6,7 C 90 % 1011,1 hPa 0,0 l/m 20,6 km/h (4 Bft) SW22.5 220
16.12.2014 08:25 5,2 C 5,2 C 6,7 C 90 % 1011,1 hPa 0,0 l/m 17,5 km/h (3 Bft) SW45 225
16.12.2014 08:30 5,2 C 5,2 C 6,7 C 90 % 1011,1 hPa 0,0 l/m 16,6 km/h (3 Bft) SW45 230
16.12.2014 08:35 5,2 C 5,2 C 6,7 C 90 % 1011,1 hPa 0,0 l/m 18,8 km/h (3 Bft) SW22.5 225
16.12.2014 08:40 5,3 C 5,3 C 6,7 C 90 % 1011,1 hPa 0,0 l/m 19,2 km/h (3 Bft) SW22.5 225
16.12.2014 08:45 5,4 C 5,3 C 6,7 C 90 % 1011,1 hPa 0,0 l/m 19,0 km/h (3 Bft) SW45 215
16.12.2014 08:50 5,4 C 5,3 C 6,7 C 90 % 1011,1 hPa 0,0 l/m 18,8 km/h (3 Bft) SW45 220
16.12.2014 08:55 5,4 C 5,3 C 6,7 C 90 % 1011,1 hPa 0,0 l/m 14,1 km/h (3 Bft) SW45 225
16.12.2014 09:00 5,5 C 5,3 C 6,7 C 90 % 1011,1 hPa 0,0 l/m 15,7 km/h (3 Bft) SW22.5 220
16.12.2014 09:05 5,5 C 5,4 C 6,7 C 90 % 1011,1 hPa 0,0 l/m 15,7 km/h (3 Bft) SW22.5 220
16.12.2014 09:10 5,5 C 5,4 C 6,7 C 90 % 1011,1 hPa 0,0 l/m 16,1 km/h (3 Bft) SW45 220
16.12.2014 09:15 5,6 C 5,5 C 6,7 C 90 % 1012,1 hPa 0,0 l/m 19,2 km/h (3 Bft) SW45 215
16.12.2014 09:20 5,6 C 5,5 C 6,7 C 90 % 1012,1 hPa 0,0 l/m 12,4 km/h (2 Bft) W-SW45 240
16.12.2014 09:25 5,6 C 5,5 C 6,7 C 90 % 1012,1 hPa 0,0 l/m 14,1 km/h (3 Bft) SW22.5 235
16.12.2014 09:30 5,6 C 5,6 C 6,7 C 90 % 1012,1 hPa 0,0 l/m 15,0 km/h (3 Bft) SW45 225
16.12.2014 09:35 5,6 C 5,7 C 6,7 C 90 % 1012,1 hPa 0,0 l/m 15,0 km/h (3 Bft) SW45 225
16.12.2014 09:40 5,6 C 5,8 C 6,7 C 90 % 1012,1 hPa 0,0 l/m 24,5 km/h (4 Bft) W-SW22.5 240
16.12.2014 09:45 5,6 C 5,9 C 6,7 C 90 % 1012,1 hPa 0,0 l/m 18,7 km/h (3 Bft) W-SW22.5 240
16.12.2014 09:50 5,6 C 6,1 C 6,7 C 90 % 1012,1 hPa 0,0 l/m 18,5 km/h (3 Bft) SW45 235
16.12.2014 09:55 5,6 C 6,1 C 6,7 C 90 % 1012,1 hPa 0,0 l/m 25,4 km/h (4 Bft) W-SW45 240
16.12.2014 10:00 5,6 C 6,2 C 6,7 C 90 % 1012,1 hPa 0,0 l/m 22,8 km/h (4 Bft) SW22.5 230
16.12.2014 10:05 5,6 C 6,3 C 6,7 C 90 % 1012,1 hPa 0,0 l/m 22,2 km/h (4 Bft) W-SW22.5 240
16.12.2014 10:10 5,6 C 6,5 C 6,7 C 90 % 1012,1 hPa 0,0 l/m 23,3 km/h (4 Bft) SW45 225
16.12.2014 10:15 5,6 C 6,5 C 6,7 C 90 % 1012,1 hPa 0,0 l/m 18,1 km/h (3 Bft) W-SW22.5 240
16.12.2014 10:20 5,6 C 6,5 C 6,7 C 90 % 1012,1 hPa 0,0 l/m 21,4 km/h (4 Bft) W-SW22.5 240
16.12.2014 10:25 5,6 C 6,6 C 6,7 C 90 % 1012,1 hPa 0,0 l/m 20,5 km/h (4 Bft) W-SW45 245
16.12.2014 10:30 5,6 C 6,6 C 6,7 C 90 % 1012,1 hPa 0,0 l/m 21,3 km/h (4 Bft) W-SW22.5 245
16.12.2014 10:35 5,6 C 6,1 C 6,7 C 90 % 1012,1 hPa 0,0 l/m 22,4 km/h (4 Bft) W-SW22.5 245
16.12.2014 10:40 5,6 C 6,5 C 6,8 C 90 % 1012,1 hPa 0,0 l/m 17,5 km/h (3 Bft) W-SW22.5 240
16.12.2014 10:45 5,6 C 7,1 C 6,8 C 90 % 1012,1 hPa 0,0 l/m 19,3 km/h (3 Bft) SW45 235
16.12.2014 10:50 5,6 C 7,2 C 6,8 C 90 % 1012,1 hPa 0,0 l/m 22,8 km/h (4 Bft) W-SW45 240
16.12.2014 10:55 5,6 C 7,5 C 6,8 C 90 % 1012,1 hPa 0,0 l/m 22,8 km/h (4 Bft) W-SW22.5 250
16.12.2014 11:00 5,6 C 7,3 C 6,8 C 90 % 1012,1 hPa 0,0 l/m 21,0 km/h (4 Bft) SW22.5 235
16.12.2014 11:05 5,6 C 7,3 C 6,8 C 90 % 1012,1 hPa 0,0 l/m 22,0 km/h (4 Bft) W-SW22.5 245
16.12.2014 11:10 5,6 C 9,0 C 6,8 C 90 % 1012,1 hPa 0,0 l/m 20,2 km/h (4 Bft) W-SW45 240
16.12.2014 11:15 5,6 C 10,2 C 6,8 C 90 % 1012,1 hPa 0,0 l/m 20,0 km/h (4 Bft) SW67.5 230
16.12.2014 11:20 5,6 C 10,8 C 6,8 C 90 % 1012,1 hPa 0,0 l/m 23,0 km/h (4 Bft) W-SW22.5 240
16.12.2014 11:25 5,6 C 11,0 C 6,8 C 90 % 1012,1 hPa 0,0 l/m 23,7 km/h (4 Bft) W-SW22.5 250
16.12.2014 11:30 5,6 C 10,9 C 6,8 C 90 % 1012,1 hPa 0,0 l/m 22,6 km/h (4 Bft) SW22.5 235
16.12.2014 11:35 5,6 C 10,5 C 6,8 C 90 % 1012,1 hPa 0,0 l/m 21,6 km/h (4 Bft) W-SW22.5 245
16.12.2014 11:40 5,6 C 10,6 C 6,8 C 90 % 1012,1 hPa 0,0 l/m 20,7 km/h (4 Bft) W-SW 245
16.12.2014 11:45 5,6 C 11,2 C 6,8 C 90 % 1012,1 hPa 0,0 l/m 25,5 km/h (4 Bft) SW45 235
16.12.2014 11:50 5,6 C 11,8 C 6,8 C 90 % 1012,1 hPa 0,0 l/m 26,8 km/h (4 Bft) W-SW45 240
16.12.2014 11:55 5,6 C 11,8 C 6,8 C 90 % 1012,1 hPa 0,0 l/m 24,9 km/h (4 Bft) W-SW22.5 255
16.12.2014 12:00 5,6 C 11,5 C 6,8 C 90 % 1012,1 hPa 0,0 l/m 26,5 km/h (4 Bft) W-SW45 250
16.12.2014 12:05 7,2 C 10,9 C 6,8 C 81 % 1012,0 hPa 0,0 l/m 22,3 km/h (4 Bft) W45 265
16.12.2014 12:10 7,1 C 10,6 C 6,9 C 79 % 1012,0 hPa 0,0 l/m 31,7 km/h (5 Bft) W-SW45 255
16.12.2014 12:15 7,2 C 10,5 C 6,8 C 79 % 1012,0 hPa 0,0 l/m 25,2 km/h (4 Bft) W45 265
16.12.2014 12:20 7,2 C 10,1 C 6,9 C 79 % 1012,0 hPa 0,0 l/m 24,5 km/h (4 Bft) W-SW67.5 255
16.12.2014 12:25 7,1 C 9,5 C 6,9 C 80 % 1012,0 hPa 0,0 l/m 27,8 km/h (5 Bft) W45 260
16.12.2014 12:30 7,1 C 9,5 C 6,9 C 79 % 1012,0 hPa 0,0 l/m 32,5 km/h (5 Bft) W22.5 260
16.12.2014 12:34 7,1 C 8,9 C 6,9 C 79 % 1012,0 hPa 0,0 l/m 31,3 km/h (5 Bft) W45 260
16.12.2014 12:40 7,1 C 9,1 C 6,9 C 79 % 1012,0 hPa 0,0 l/m 33,5 km/h (5 Bft) W-SW22.5 255
16.12.2014 12:45 7,1 C 9,2 C 6,9 C 79 % 1012,0 hPa 0,0 l/m 27,9 km/h (5 Bft) W22.5 260
16.12.2014 12:50 7,1 C 9,0 C 6,9 C 79 % 1012,0 hPa 0,0 l/m 24,3 km/h (4 Bft) W22.5 260
16.12.2014 12:55 7,2 C 8,5 C 7,0 C 79 % 1012,0 hPa 0,0 l/m 25,1 km/h (4 Bft) W22.5 265
16.12.2014 13:00 7,2 C 8,5 C 7,0 C 79 % 1012,0 hPa 0,0 l/m 32,1 km/h (5 Bft) W-SW45 245
16.12.2014 13:04 7,2 C 7,7 C 7,0 C 79 % 1012,0 hPa 0,0 l/m 34,5 km/h (5 Bft) W-SW22.5 250
16.12.2014 13:10 6,9 C 7,5 C 7,0 C 77 % 1012,0 hPa 0,0 l/m 31,3 km/h (5 Bft) W22.5 260
16.12.2014 13:15 6,9 C 7,4 C 7,0 C 77 % 1012,0 hPa 0,0 l/m 30,2 km/h (5 Bft) W-SW45 250
16.12.2014 13:20 6,8 C 7,5 C 7,0 C 80 % 1012,1 hPa 0,0 l/m 25,1 km/h (4 Bft) W-SW67.5 245
16.12.2014 13:25 6,8 C 8,2 C 7,0 C 80 % 1012,1 hPa 0,0 l/m 23,1 km/h (4 Bft) W-SW22.5 245
16.12.2014 13:30 7,0 C 8,9 C 7,0 C 80 % 1012,0 hPa 0,0 l/m 27,8 km/h (5 Bft) W-SW45 240
16.12.2014 13:35 7,0 C 8,7 C 7,0 C 80 % 1012,0 hPa 0,0 l/m 27,8 km/h (5 Bft) W-SW45 240
16.12.2014 13:40 6,9 C 8,8 C 7,0 C 80 % 1012,0 hPa 0,0 l/m 27,0 km/h (5 Bft) W-SW22.5 240
16.12.2014 13:45 7,1 C 10,9 C 7,0 C 80 % 1012,0 hPa 0,0 l/m 26,1 km/h (4 Bft) W-SW22.5 250
16.12.2014 13:50 7,1 C 10,9 C 7,0 C 80 % 1011,0 hPa 0,0 l/m 24,8 km/h (4 Bft) W-SW45 240
16.12.2014 13:55 7,4 C 10,5 C 7,0 C 78 % 1011,0 hPa 0,0 l/m 28,8 km/h (5 Bft) W-SW22.5 250
16.12.2014 14:00 7,2 C 9,9 C 7,1 C 78 % 1011,0 hPa 0,0 l/m 29,8 km/h (5 Bft) W-SW45 245
16.12.2014 14:05 7,2 C 9,0 C 7,1 C 79 % 1011,0 hPa 0,0 l/m 31,7 km/h (5 Bft) W-SW22.5 245
16.12.2014 14:10 7,2 C 8,6 C 7,1 C 79 % 1011,0 hPa 0,0 l/m 34,6 km/h (5 Bft) SW45 230
16.12.2014 14:15 7,0 C 8,2 C 7,1 C 79 % 1011,0 hPa 0,0 l/m 28,0 km/h (5 Bft) W-SW22.5 240
16.12.2014 14:20 6,8 C 7,2 C 7,1 C 80 % 1011,0 hPa 0,0 l/m 32,6 km/h (5 Bft) W-SW45 240
16.12.2014 14:25 6,8 C 6,8 C 7,1 C 80 % 1011,0 hPa 0,0 l/m 27,8 km/h (5 Bft) W-SW45 250
16.12.2014 14:30 6,8 C 6,4 C 7,1 C 81 % 1011,0 hPa 0,0 l/m 20,3 km/h (4 Bft) W-SW22.5 250
16.12.2014 14:35 6,8 C 6,1 C 7,1 C 80 % 1011,0 hPa 0,0 l/m 27,3 km/h (5 Bft) W22.5 260
16.12.2014 14:40 6,8 C 6,1 C 7,1 C 80 % 1011,0 hPa 0,0 l/m 23,7 km/h (4 Bft) W-SW45 255
16.12.2014 14:45 6,7 C 6,2 C 7,1 C 81 % 1011,0 hPa 0,0 l/m 31,3 km/h (5 Bft) W22.5 260
16.12.2014 14:50 6,7 C 6,3 C 7,1 C 81 % 1011,0 hPa 0,0 l/m 28,5 km/h (5 Bft) W-SW45 245
16.12.2014 14:55 6,8 C 6,5 C 7,1 C 81 % 1011,0 hPa 0,0 l/m 20,2 km/h (4 Bft) W-SW45 240
16.12.2014 15:00 6,8 C 6,6 C 7,1 C 80 % 1011,0 hPa 0,0 l/m 24,3 km/h (4 Bft) W-SW22.5 255
16.12.2014 15:05 6,7 C 6,5 C 7,1 C 81 % 1011,0 hPa 0,0 l/m 22,6 km/h (4 Bft) W-SW45 240
16.12.2014 15:10 6,8 C 6,3 C 7,1 C 80 % 1011,0 hPa 0,0 l/m 25,1 km/h (4 Bft) W-SW22.5 245
16.12.2014 15:15 6,8 C 6,3 C 7,1 C 80 % 1011,0 hPa 0,0 l/m 25,7 km/h (4 Bft) W-SW22.5 255
16.12.2014 15:20 6,7 C 6,2 C 7,1 C 79 % 1012,1 hPa 0,0 l/m 20,3 km/h (4 Bft) W-SW22.5 245
16.12.2014 15:25 6,6 C 5,9 C 7,1 C 79 % 1012,1 hPa 0,0 l/m 27,3 km/h (5 Bft) W-SW22.5 255
16.12.2014 15:30 6,6 C 5,9 C 7,1 C 79 % 1012,1 hPa 0,0 l/m 28,3 km/h (5 Bft) W-SW22.5 255
16.12.2014 15:35 6,7 C 6,2 C 7,1 C 80 % 1012,1 hPa 0,0 l/m 25,3 km/h (4 Bft) W-SW45 245
16.12.2014 15:40 6,7 C 6,4 C 7,1 C 80 % 1012,1 hPa 0,0 l/m 24,5 km/h (4 Bft) W-SW22.5 250
16.12.2014 15:44 6,7 C 6,4 C 7,1 C 80 % 1012,1 hPa 0,0 l/m 25,5 km/h (4 Bft) W-SW22.5 255
16.12.2014 15:50 6,7 C 6,3 C 7,1 C 79 % 1012,1 hPa 0,0 l/m 21,7 km/h (4 Bft) W-SW45 255
16.12.2014 15:55 6,6 C 6,3 C 7,1 C 80 % 1012,1 hPa 0,0 l/m 24,5 km/h (4 Bft) W45 260
16.12.2014 16:00 6,6 C 6,2 C 7,1 C 80 % 1012,1 hPa 0,0 l/m 25,4 km/h (4 Bft) W-SW22.5 250
16.12.2014 16:05 6,6 C 6,1 C 7,1 C 80 % 1012,1 hPa 0,0 l/m 24,8 km/h (4 Bft) W-SW22.5 250
16.12.2014 16:10 6,6 C 6,1 C 7,1 C 80 % 1012,1 hPa 0,0 l/m 19,0 km/h (3 Bft) W-SW22.5 250
16.12.2014 16:15 6,6 C 6,1 C 7,1 C 80 % 1012,1 hPa 0,0 l/m 20,6 km/h (4 Bft) W-SW22.5 255
16.12.2014 16:20 6,6 C 6,1 C 7,1 C 80 % 1012,1 hPa 0,0 l/m 22,7 km/h (4 Bft) W-SW45 245
16.12.2014 16:25 6,6 C 6,0 C 7,1 C 80 % 1012,1 hPa 0,0 l/m 24,7 km/h (4 Bft) W-SW22.5 250
16.12.2014 16:30 6,4 C 5,9 C 7,1 C 81 % 1012,1 hPa 0,0 l/m 21,0 km/h (4 Bft) W-SW22.5 255
16.12.2014 16:35 6,4 C 5,9 C 7,1 C 80 % 1012,1 hPa 0,0 l/m 20,3 km/h (4 Bft) W-SW45 250
16.12.2014 16:40 6,4 C 5,9 C 7,1 C 81 % 1012,1 hPa 0,0 l/m 23,5 km/h (4 Bft) W-SW22.5 240
16.12.2014 16:45 6,4 C 5,9 C 7,1 C 80 % 1012,1 hPa 0,0 l/m 22,5 km/h (4 Bft) W-SW22.5 240
16.12.2014 16:50 6,4 C 5,9 C 7,0 C 81 % 1012,1 hPa 0,0 l/m 22,9 km/h (4 Bft) W-SW22.5 250
16.12.2014 16:55 6,4 C 6,0 C 7,0 C 81 % 1012,1 hPa 0,0 l/m 19,1 km/h (3 Bft) SW45 225
16.12.2014 17:00 6,4 C 6,0 C 7,1 C 82 % 1012,1 hPa 0,0 l/m 18,6 km/h (3 Bft) W-SW22.5 245
16.12.2014 17:05 6,4 C 5,8 C 7,1 C 82 % 1012,1 hPa 0,0 l/m 35,6 km/h (5 Bft) W67.5 260
16.12.2014 17:10 6,2 C 5,7 C 7,1 C 82 % 1012,1 hPa 0,0 l/m 39,8 km/h (6 Bft) W45 260
16.12.2014 17:15 6,0 C 5,3 C 7,1 C 83 % 1012,1 hPa 0,0 l/m 36,1 km/h (5 Bft) W22.5 275
16.12.2014 17:20 5,8 C 5,1 C 7,1 C 83 % 1012,1 hPa 0,0 l/m 29,7 km/h (5 Bft) W45 275
16.12.2014 17:25 5,8 C 4,8 C 7,0 C 85 % 1012,1 hPa 0,0 l/m 19,0 km/h (3 Bft) W22.5 270
16.12.2014 17:30 5,7 C 4,6 C 7,0 C 85 % 1012,1 hPa 0,0 l/m 18,8 km/h (3 Bft) W22.5 260
16.12.2014 17:30 5,7 C 4,6 C 7,0 C 85 % 1012,1 hPa 0,0 l/m 18,8 km/h (3 Bft) W22.5 260
16.12.2014 17:35 5,5 C 4,9 C 7,0 C 87 % 1013,1 hPa 0,4 l/m 12,3 km/h (2 Bft) W22.5 270
16.12.2014 17:40 5,6 C 5,0 C 7,0 C 87 % 1013,1 hPa 0,0 l/m 7,8 km/h (2 Bft) NW 315
16.12.2014 17:45 5,6 C 5,0 C 7,0 C 88 % 1013,1 hPa 0,0 l/m 11,7 km/h (2 Bft) W-NW22.5 295
16.12.2014 17:50 5,6 C 5,0 C 7,0 C 86 % 1013,1 hPa 0,4 l/m 21,1 km/h (4 Bft) W22.5 270
16.12.2014 17:55 5,5 C 4,9 C 7,0 C 87 % 1013,1 hPa 0,0 l/m 12,3 km/h (2 Bft) W22.5 270
16.12.2014 18:00 5,6 C 5,0 C 7,0 C 87 % 1013,1 hPa 109,4 l/m 7,8 km/h (2 Bft) NW 315
16.12.2014 18:05 5,6 C 5,0 C 7,0 C 88 % 1013,1 hPa 0,0 l/m 11,7 km/h (2 Bft) W-NW22.5 295
16.12.2014 18:09 5,6 C 5,0 C 7,0 C 86 % 1013,1 hPa 0,4 l/m 21,1 km/h (4 Bft) W22.5 270
16.12.2014 18:14 4,9 C 3,9 C 7,1 C 86 % 1013,1 hPa 0,0 l/m 9,0 km/h (2 Bft) W-NW 285
16.12.2014 18:20 4,9 C 3,6 C 7,0 C 86 % 1013,1 hPa 0,0 l/m 10,0 km/h (2 Bft) W22.5 280
16.12.2014 18:25 4,9 C 3,2 C 7,0 C 86 % 1013,1 hPa 0,0 l/m 9,2 km/h (2 Bft) W-NW22.5 290
16.12.2014 18:30 4,9 C 2,9 C 7,1 C 86 % 1013,1 hPa 0,0 l/m 8,7 km/h (2 Bft) W-NW 285
16.12.2014 18:35 4,9 C 3,9 C 7,1 C 86 % 1013,1 hPa 0,0 l/m 9,0 km/h (2 Bft) W-NW 285
16.12.2014 18:40 4,9 C 3,6 C 7,0 C 86 % 1013,1 hPa 0,0 l/m 10,0 km/h (2 Bft) W22.5 280
16.12.2014 18:45 4,9 C 3,2 C 7,0 C 86 % 1013,1 hPa 0,0 l/m 9,2 km/h (2 Bft) W-NW22.5 290
16.12.2014 18:50 4,9 C 2,9 C 7,1 C 86 % 1013,1 hPa 0,0 l/m 8,7 km/h (2 Bft) W-NW 285
16.12.2014 18:55 3,8 C 1,0 C 7,0 C 87 % 1013,1 hPa 0,0 l/m 8,4 km/h (2 Bft) W 260
16.12.2014 19:00 3,8 C 0,8 C 7,1 C 87 % 1013,1 hPa 0,0 l/m 7,9 km/h (2 Bft) W 260
16.12.2014 19:05 3,9 C 1,0 C 7,0 C 88 % 1013,1 hPa 0,0 l/m 11,6 km/h (2 Bft) W-SW22.5 255
16.12.2014 19:10 3,6 C 1,0 C 7,0 C 88 % 1013,1 hPa 0,0 l/m 13,0 km/h (3 Bft) W 260
16.12.2014 19:15 3,8 C 1,0 C 7,0 C 87 % 1013,1 hPa 0,0 l/m 8,4 km/h (2 Bft) W 260
16.12.2014 19:20 3,8 C 0,8 C 7,1 C 87 % 1013,1 hPa 0,0 l/m 7,9 km/h (2 Bft) W 260
16.12.2014 19:25 3,9 C 1,0 C 7,0 C 88 % 1013,1 hPa 0,0 l/m 11,6 km/h (2 Bft) W-SW22.5 255
16.12.2014 19:30 3,6 C 1,0 C 7,0 C 88 % 1013,1 hPa 0,0 l/m 13,0 km/h (3 Bft) W 260
16.12.2014 19:35 4,1 C 2,6 C 7,0 C 89 % 1013,1 hPa 0,0 l/m 15,0 km/h (3 Bft) W-SW22.5 255
16.12.2014 19:40 4,2 C 2,7 C 7,0 C 89 % 1013,1 hPa 0,0 l/m 15,8 km/h (3 Bft) W22.5 260
16.12.2014 19:45 4,3 C 3,0 C 7,0 C 89 % 1014,1 hPa 0,0 l/m 18,0 km/h (3 Bft) W22.5 260
16.12.2014 19:50 4,3 C 2,9 C 7,0 C 88 % 1014,1 hPa 0,0 l/m 19,8 km/h (3 Bft) W-SW22.5 250
16.12.2014 19:55 4,1 C 2,6 C 7,0 C 89 % 1013,1 hPa 0,0 l/m 15,0 km/h (3 Bft) W-SW22.5 255
16.12.2014 20:00 4,2 C 2,7 C 7,0 C 89 % 1013,1 hPa 0,0 l/m 15,8 km/h (3 Bft) W22.5 260
16.12.2014 20:05 4,3 C 3,0 C 7,0 C 89 % 1014,1 hPa 0,0 l/m 18,0 km/h (3 Bft) W22.5 260
16.12.2014 20:10 4,3 C 2,9 C 7,0 C 88 % 1014,1 hPa 0,0 l/m 19,8 km/h (3 Bft) W-SW22.5 250
16.12.2014 20:15 4,3 C 2,9 C 7,1 C 88 % 1014,1 hPa 0,0 l/m 17,0 km/h (3 Bft) W-SW22.5 250
16.12.2014 20:20 4,3 C 3,0 C 7,1 C 88 % 1014,1 hPa 0,0 l/m 20,4 km/h (4 Bft) W-SW22.5 245
16.12.2014 20:25 4,3 C 2,6 C 7,0 C 88 % 1014,1 hPa 0,0 l/m 20,9 km/h (4 Bft) W-SW22.5 250
16.12.2014 20:30 4,3 C 2,6 C 7,0 C 88 % 1014,1 hPa 0,0 l/m 21,3 km/h (4 Bft) W22.5 260
16.12.2014 20:35 4,4 C 3,0 C 7,0 C 88 % 1014,1 hPa 0,0 l/m 16,9 km/h (3 Bft) W-SW45 250
16.12.2014 20:40 4,5 C 3,5 C 7,0 C 88 % 1014,1 hPa 0,0 l/m 22,1 km/h (4 Bft) W22.5 265
16.12.2014 20:45 4,6 C 3,7 C 7,0 C 87 % 1014,1 hPa 0,0 l/m 20,7 km/h (4 Bft) W22.5 265
16.12.2014 20:50 4,7 C 3,7 C 7,0 C 87 % 1014,1 hPa 0,0 l/m 20,0 km/h (4 Bft) W-SW22.5 255
16.12.2014 20:55 4,6 C 3,7 C 7,0 C 87 % 1014,1 hPa 0,0 l/m 17,7 km/h (3 Bft) W-SW22.5 250
16.12.2014 21:00 4,6 C 3,8 C 7,0 C 87 % 1014,1 hPa 0,0 l/m 21,2 km/h (4 Bft) W-SW22.5 250
16.12.2014 21:05 4,6 C 3,8 C 7,0 C 86 % 1014,1 hPa 0,0 l/m 20,8 km/h (4 Bft) W-SW22.5 250
16.12.2014 21:10 4,6 C 3,7 C 7,0 C 87 % 1014,1 hPa 0,0 l/m 22,0 km/h (4 Bft) W-SW22.5 255
16.12.2014 21:15 4,6 C 3,6 C 7,0 C 87 % 1014,1 hPa 0,0 l/m 20,6 km/h (4 Bft) W22.5 260
16.12.2014 21:20 4,6 C 3,6 C 7,0 C 86 % 1014,1 hPa 0,0 l/m 20,4 km/h (4 Bft) W-SW22.5 250
16.12.2014 21:25 4,6 C 3,5 C 7,0 C 86 % 1014,1 hPa 0,0 l/m 18,6 km/h (3 Bft) W-SW22.5 250
16.12.2014 21:30 4,6 C 3,6 C 7,0 C 86 % 1014,1 hPa 0,0 l/m 18,8 km/h (3 Bft) W-SW22.5 255
16.12.2014 21:35 4,6 C 3,5 C 7,0 C 86 % 1014,1 hPa 0,0 l/m 19,2 km/h (3 Bft) W-SW22.5 250
16.12.2014 21:40 4,6 C 3,5 C 7,0 C 86 % 1014,1 hPa 0,0 l/m 22,1 km/h (4 Bft) W-SW22.5 250
16.12.2014 21:45 4,5 C 3,4 C 7,0 C 86 % 1014,1 hPa 0,0 l/m 22,8 km/h (4 Bft) W-SW22.5 245
16.12.2014 21:50 4,5 C 3,2 C 7,0 C 86 % 1014,1 hPa 0,0 l/m 21,1 km/h (4 Bft) W-SW45 245
16.12.2014 21:55 4,4 C 3,1 C 7,0 C 87 % 1014,1 hPa 0,0 l/m 20,7 km/h (4 Bft) W-SW22.5 245
16.12.2014 22:00 4,3 C 2,8 C 7,0 C 87 % 1014,1 hPa 0,0 l/m 22,4 km/h (4 Bft) W-SW22.5 240
16.12.2014 22:05 4,3 C 2,6 C 6,9 C 87 % 1014,1 hPa 0,0 l/m 19,9 km/h (4 Bft) W-SW22.5 245
16.12.2014 22:10 4,1 C 2,5 C 6,9 C 87 % 1014,1 hPa 0,0 l/m 19,6 km/h (3 Bft) W-SW45 240
16.12.2014 22:15 3,9 C 2,3 C 7,0 C 87 % 1014,1 hPa 0,0 l/m 17,3 km/h (3 Bft) W-SW22.5 245
16.12.2014 22:20 3,9 C 1,9 C 7,0 C 87 % 1014,1 hPa 0,0 l/m 18,0 km/h (3 Bft) W-SW22.5 250
16.12.2014 22:25 3,8 C 1,8 C 7,0 C 87 % 1014,1 hPa 0,0 l/m 17,0 km/h (3 Bft) W-SW22.5 250
16.12.2014 22:30 3,6 C 1,9 C 6,9 C 88 % 1014,1 hPa 0,0 l/m 16,5 km/h (3 Bft) W-SW22.5 240
16.12.2014 22:35 3,5 C 1,8 C 6,9 C 88 % 1014,1 hPa 0,0 l/m 19,8 km/h (3 Bft) W-SW22.5 240
16.12.2014 22:40 3,5 C 1,7 C 6,9 C 88 % 1014,1 hPa 0,0 l/m 17,1 km/h (3 Bft) W-SW22.5 240
16.12.2014 22:45 3,5 C 1,8 C 6,9 C 88 % 1014,1 hPa 0,0 l/m 17,1 km/h (3 Bft) SW22.5 235
16.12.2014 22:50 3,5 C 1,8 C 6,9 C 88 % 1014,1 hPa 0,0 l/m 15,6 km/h (3 Bft) SW45 235
16.12.2014 22:55 3,5 C 1,8 C 6,9 C 88 % 1014,1 hPa 0,0 l/m 14,4 km/h (3 Bft) SW22.5 230
16.12.2014 23:00 3,5 C 1,9 C 6,9 C 88 % 1014,1 hPa 0,0 l/m 17,8 km/h (3 Bft) SW22.5 230
16.12.2014 23:05 3,5 C 1,8 C 6,9 C 88 % 1014,1 hPa 0,0 l/m 15,7 km/h (3 Bft) SW22.5 225
16.12.2014 23:10 3,5 C 1,8 C 6,9 C 88 % 1014,1 hPa 0,0 l/m 18,0 km/h (3 Bft) SW22.5 230
16.12.2014 23:15 3,5 C 1,7 C 7,0 C 88 % 1014,1 hPa 0,0 l/m 16,7 km/h (3 Bft) SW22.5 230
16.12.2014 23:20 3,5 C 1,6 C 6,9 C 88 % 1014,1 hPa 0,0 l/m 16,3 km/h (3 Bft) SW22.5 235
16.12.2014 23:25 3,5 C 1,4 C 6,9 C 88 % 1014,1 hPa 0,0 l/m 12,8 km/h (3 Bft) SW22.5 235
16.12.2014 23:30 3,5 C 1,4 C 6,9 C 88 % 1014,1 hPa 0,0 l/m 14,0 km/h (3 Bft) SW22.5 225
16.12.2014 23:35 3,5 C 1,5 C 6,9 C 88 % 1014,1 hPa 0,0 l/m 12,7 km/h (3 Bft) SW22.5 230
16.12.2014 23:40 3,5 C 2,0 C 6,9 C 88 % 1014,1 hPa 0,0 l/m 14,3 km/h (3 Bft) SW45 225
16.12.2014 23:45 3,5 C 2,6 C 6,9 C 88 % 1014,1 hPa 0,0 l/m 16,6 km/h (3 Bft) SW22.5 230
16.12.2014 23:50 3,5 C 2,8 C 6,9 C 88 % 1014,1 hPa 0,0 l/m 20,8 km/h (4 Bft) SW45 230
16.12.2014 23:55 3,5 C 2,9 C 6,9 C 88 % 1014,1 hPa 0,0 l/m 19,6 km/h (3 Bft) W-SW22.5 240
_ Min-Zeit 22:35 19:00 00:00 13:10 13:55 - 17:40 - -
Minimum _ 3,5 C 0,8 C 6,6 C 77 % 1011,0 hPa - 7,8 km/h (2 Bft) - -
_ Max-Zeit 13:55 11:50 14:00 07:25 22:35 18:00 17:10 - -
Maximum _ 7,4 C 11,8 C 7,1 C 90 % 1014,1 hPa 109,4 l/m 39,8 km/h
W (6 Bft)
- -
Durchschnitt _ 5,3 C 5,2 C 6,8 C 86 % 1012,4 hPa #110,5 l/m 18,2 km/h (3 Bft) W-SW -